Showing default

YAOGAN 20B, 40110

Orbit data source: Space-Track

YAOGAN 20B, 40110 is a payload satellite owned by PLA GAD (CN) in LEO that was launched on Sat, 09 Aug 2014 UTC via a CHANG ZHENG 4C launch vehicle from the Jiuquan Satellite Launch Center, China (JSC). Payload-class satellites include a variety of spacecraft equipped with specific instruments for various scientific and technological missions. These include communications satellites like Starlink; space stations such as the ISS; scientific satellites like the Hubble; Earth observation satellites from companies like Planet Labs, Umbra, and HawkEye 360; GPS; miniature CubeSats for education and research; and military/defense satellites.

Loading next visibility...
Identifier
40110, 2014-047B
Orbit
LEO
Country
Flag of CNCN / PRC
Related business
Manufacturer
CAST
Mission
Operational Defense Sigint
Bus & Motor
Unknown
Mass
~500 kg wet, ~500 kg dry
Launch date (UTC)
2014-08-09 (11 years ago)
Launch vehicle
CHANG ZHENG 4C
Launch site
Jiuquan Satellite Launch Center, China (JSC)
Object type
Payload
Rocket body
Debris
Shape & HBR
Box + 2 Pan, 0.5 m
Radar Cross Section
0.446 m², Large (>1 m²)

Expand to show TLE details & history
Last TLE update: 4 hours ago

TLE from 4 hours ago
0 YAOGAN 20B
1 40110U 14047B   25288.01281589  .00000030  00000-0  13534-3 0  9993
2 40110  63.3811 292.0207 0368405  13.3925 347.6563 13.45402478549292
Epoch: 2025-10-15T00:18Z
TLE epoch observation values (Epoch: 2025-10-15T00:18:27.292Z)
Latitude
-0.00009°
Longitude
-96.38606°
Altitude
822.71 km
Speed
7.575 km/s
True Right ascension
19h 28m 04s
True Declination
0° 00' 00"
Sunlit
Object was in daylight at epoch
Visualization orbit readout
Latitude
Unknown
Longitude
Unknown
Altitude
Unknown
Speed
Unknown
Apparent Right ascension
Unknown
Apparent Declination
Unknown
Sunlit
N/A
Visualization observer readout
Local Sidereal Time
22:48:29
Azimuth
Unknown
Elevation
Unknown
Doppler factor
Unknown
Orbital elements
Apogee altitude
1,363.109 km
Perigee altitude
812.993 km
Semi-major axis
7,466.188 km
Eccentricity
0.03684
Inclination
63.3811°
RAAN
292.0207°
Arg. of periapsis
13.3925°
True anomaly
346.71144°
Mean anomaly
347.6563°
Eccentric anomaly
347.18823°
Mean motion
3.3643 °/min
Orbital period
107.01 mins
BSTAR
0.00013534
Loading maneuver chart data...
Computing Atmospheric mass density...
Loading historical data...
Loading historical data...
Loading historical data...
Loading historical data...
Loading historical data...
Loading historical data...
Loading historical data...

Documentation

Showing up to 5 results
|